When you browse on this site, cookies collect data to enhance your experience and personalize the content and advertising you see.
Visit our Privacy Policy to learn more. By continuing to use the site, you agree to this use of cookies and data.
  • în România
  • Lista ţărilor
  • Pe 7 zile
  • Temperatura apei
  • Hartă satelitară
  • Meteo pe hartă
  • Widget-uri
  • user-avatar
    Intrare

    Meteo pe oră la Sinec

    Astăzi, 26 Martie, Marţi

    Timp Temperatura Precipitaţii Vânt Presiune Umiditate
    00:00 -1°C° 0 mm 2 m/s 736 mmHg 81%
    01:00 -2°C° 0 mm 2 m/s 736 mmHg 84%
    02:00 -2°C° 0 mm 2 m/s 736 mmHg 86%
    03:00 -2°C° 0.1 mm 2 m/s 736 mmHg 88%
    04:00 -2°C° 0.1 mm 2 m/s 736 mmHg 90%
    05:00 -2°C° 0.1 mm 2 m/s 736 mmHg 91%
    06:00 -1°C° 0.3 mm 3 m/s 736 mmHg 89%
    07:00 -1°C° 0.3 mm 3 m/s 736 mmHg 86%
    08:00 -2°C° 0.3 mm 4 m/s 736 mmHg 83%
    09:00 -1°C° 0.1 mm 4 m/s 736 mmHg 76%
    10:00 -1°C° 0.1 mm 4 m/s 737 mmHg 69%
    11:00 0°C° 0.1 mm 4 m/s 737 mmHg 63%
    12:00 0°C° 0.1 mm 4 m/s 737 mmHg 61%
    13:00 0°C° 0.1 mm 4 m/s 737 mmHg 59%
    14:00 0°C° 0.1 mm 4 m/s 737 mmHg 57%
    15:00 +1°C° 0 mm 3 m/s 738 mmHg 57%
    16:00 +1°C° 0 mm 3 m/s 738 mmHg 57%
    17:00 +2°C° 0 mm 2 m/s 738 mmHg 57%
    18:00 +1°C° 0 mm 2 m/s 738 mmHg 62%
    19:00 -2°C° 0 mm 2 m/s 739 mmHg 66%
    20:00 -1°C° 0 mm 1 m/s 739 mmHg 70%
    21:00 -1°C° 0 mm 1 m/s 739 mmHg 71%
    22:00 -1°C° 0 mm 1 m/s 740 mmHg 71%
    23:00 -2°C° 0 mm 1 m/s 740 mmHg 71%

    Mâine, 27 Martie, Miercuri

    Timp Temperatura Precipitaţii Vânt Presiune Umiditate
    00:00 -2°C° 0 mm 1 m/s 740 mmHg 72%
    01:00 -2°C° 0 mm 1 m/s 741 mmHg 73%
    02:00 -2°C° 0 mm 1 m/s 741 mmHg 74%
    03:00 -4°C° 0 mm 2 m/s 741 mmHg 76%
    04:00 -5°C° 0 mm 2 m/s 742 mmHg 78%
    05:00 -5°C° 0 mm 2 m/s 742 mmHg 80%
    06:00 -4°C° 0 mm 2 m/s 743 mmHg 77%
    07:00 -4°C° 0 mm 3 m/s 743 mmHg 74%
    08:00 -2°C° 0 mm 3 m/s 744 mmHg 72%
    09:00 -1°C° 0 mm 3 m/s 744 mmHg 66%
    10:00 0°C° 0 mm 3 m/s 745 mmHg 61%
    11:00 -1°C° 0 mm 4 m/s 746 mmHg 55%
    12:00 0°C° 0 mm 4 m/s 746 mmHg 52%
    13:00 0°C° 0 mm 4 m/s 746 mmHg 48%
    14:00 +1°C° 0 mm 4 m/s 746 mmHg 45%
    15:00 +1°C° 0 mm 3 m/s 747 mmHg 46%
    16:00 +1°C° 0 mm 3 m/s 747 mmHg 46%
    17:00 +2°C° 0 mm 2 m/s 747 mmHg 47%
    18:00 -1°C° 0 mm 2 m/s 748 mmHg 53%
    19:00 0°C° 0 mm 1 m/s 748 mmHg 59%
    20:00 -1°C° 0 mm 1 m/s 749 mmHg 65%
    21:00 -2°C° 0 mm 1 m/s 749 mmHg 66%
    22:00 -2°C° 0 mm 1 m/s 749 mmHg 68%
    23:00 -2°C° 0 mm 1 m/s 750 mmHg 69%

    Poimâine, 28 Martie, Joi

    Timp Temperatura Precipitaţii Vânt Presiune Umiditate
    00:00 -2°C° 0 mm 1 m/s 750 mmHg 69%
    01:00 -2°C° 0 mm 1 m/s 750 mmHg 70%
    02:00 -2°C° 0 mm 1 m/s 750 mmHg 70%
    03:00 -3°C° 0 mm 1 m/s 750 mmHg 70%
    04:00 -3°C° 0 mm 1 m/s 750 mmHg 69%
    05:00 -3°C° 0 mm 1 m/s 751 mmHg 69%
    06:00 -2°C° 0 mm 1 m/s 751 mmHg 63%
    07:00 0°C° 0 mm 1 m/s 751 mmHg 57%
    08:00 +1°C° 0 mm 1 m/s 751 mmHg 51%
    09:00 +1°C° 0 mm 2 m/s 751 mmHg 48%
    10:00 +3°C° 0 mm 2 m/s 751 mmHg 45%
    11:00 +3°C° 0 mm 3 m/s 751 mmHg 41%
    12:00 +3°C° 0 mm 3 m/s 751 mmHg 46%
    13:00 +4°C° 0 mm 3 m/s 751 mmHg 52%
    14:00 +4°C° 0 mm 4 m/s 750 mmHg 57%
    15:00 +4°C° 0 mm 3 m/s 750 mmHg 63%
    16:00 +3°C° 0 mm 3 m/s 750 mmHg 68%
    17:00 +3°C° 0 mm 3 m/s 750 mmHg 74%
    18:00 +3°C° 0 mm 2 m/s 749 mmHg 79%
    19:00 +2°C° 0 mm 2 m/s 749 mmHg 83%
    20:00 +1°C° 0 mm 2 m/s 749 mmHg 88%
    21:00 +1°C° 0 mm 2 m/s 749 mmHg 86%
    22:00 0°C° 0 mm 3 m/s 749 mmHg 84%
    23:00 0°C° 0 mm 3 m/s 748 mmHg 82%

    29 Martie, Vineri

    Timp Temperatura Precipitaţii Vânt Presiune Umiditate
    00:00 +1°C° 0.4 mm 3 m/s 748 mmHg 83%
    01:00 0°C° 0.4 mm 4 m/s 747 mmHg 85%
    02:00 0°C° 0.4 mm 4 m/s 747 mmHg 86%
    03:00 0°C° 0 mm 4 m/s 747 mmHg 87%
    04:00 +1°C° 0 mm 4 m/s 747 mmHg 89%
    05:00 +1°C° 0 mm 4 m/s 747 mmHg 90%
    06:00 +1°C° 0 mm 4 m/s 747 mmHg 89%
    07:00 +1°C° 0 mm 4 m/s 747 mmHg 88%
    08:00 +1°C° 0 mm 4 m/s 747 mmHg 87%
    09:00 +4°C° 0 mm 4 m/s 747 mmHg 80%
    10:00 +5°C° 0 mm 4 m/s 747 mmHg 74%
    11:00 +7°C° 0 mm 4 m/s 747 mmHg 68%
    12:00 +8°C° 0 mm 4 m/s 747 mmHg 65%
    13:00 +10°C° 0 mm 4 m/s 746 mmHg 62%
    14:00 +11°C° 0 mm 4 m/s 746 mmHg 59%
    15:00 +11°C° 0 mm 4 m/s 746 mmHg 61%
    16:00 +10°C° 0 mm 3 m/s 745 mmHg 62%
    17:00 +10°C° 0 mm 3 m/s 745 mmHg 64%
    18:00 +9°C° 0 mm 3 m/s 745 mmHg 69%
    19:00 +8°C° 0 mm 3 m/s 745 mmHg 74%
    20:00 +7°C° 0 mm 3 m/s 745 mmHg 79%
    21:00 +7°C° 0 mm 3 m/s 745 mmHg 82%
    22:00 +7°C° 0 mm 3 m/s 744 mmHg 86%
    23:00 +5°C° 0 mm 3 m/s 744 mmHg 89%

    30 Martie, Sâmbătă

    Timp Temperatura Precipitaţii Vânt Presiune Umiditate
    00:00 +5°C° 0 mm 3 m/s 743 mmHg 90%
    01:00 +5°C° 0 mm 3 m/s 743 mmHg 91%
    02:00 +5°C° 0 mm 4 m/s 742 mmHg 92%
    03:00 +4°C° 0 mm 4 m/s 742 mmHg 92%
    04:00 +4°C° 0 mm 4 m/s 742 mmHg 92%
    05:00 +4°C° 0 mm 4 m/s 741 mmHg 92%
    06:00 +3°C° 0 mm 5 m/s 741 mmHg 89%
    07:00 +5°C° 0 mm 5 m/s 741 mmHg 85%
    08:00 +5°C° 0 mm 5 m/s 741 mmHg 82%
    09:00 +4°C° 0 mm 6 m/s 741 mmHg 79%
    10:00 +5°C° 0 mm 6 m/s 740 mmHg 76%
    11:00 +5°C° 0 mm 6 m/s 740 mmHg 73%
    12:00 +7°C° 0 mm 6 m/s 740 mmHg 70%
    13:00 +7°C° 0 mm 6 m/s 740 mmHg 68%
    14:00 +8°C° 0 mm 6 m/s 740 mmHg 66%
    15:00 +7°C° 0 mm 5 m/s 740 mmHg 68%
    16:00 +7°C° 0 mm 5 m/s 740 mmHg 71%
    17:00 +6°C° 0 mm 4 m/s 740 mmHg 73%
    18:00 +6°C° 0.1 mm 4 m/s 740 mmHg 76%
    19:00 +5°C° 0.1 mm 3 m/s 740 mmHg 79%
    20:00 +5°C° 0.1 mm 3 m/s 740 mmHg 81%
    21:00 +5°C° 0.1 mm 3 m/s 740 mmHg 81%
    22:00 +5°C° 0.1 mm 3 m/s 740 mmHg 80%
    23:00 +4°C° 0.1 mm 3 m/s 739 mmHg 79%

    31 Martie, Duminică

    Timp Temperatura Precipitaţii Vânt Presiune Umiditate
    00:00 +4°C° 0 mm 3 m/s 739 mmHg 81%
    01:00 +4°C° 0 mm 3 m/s 738 mmHg 82%
    02:00 +4°C° 0 mm 3 m/s 738 mmHg 83%
    03:00 +4°C° 0.1 mm 3 m/s 738 mmHg 85%
    04:00 +3°C° 0.1 mm 3 m/s 737 mmHg 87%
    05:00 +3°C° 0.1 mm 4 m/s 737 mmHg 88%
    06:00 +3°C° 0.4 mm 4 m/s 737 mmHg 82%
    07:00 +3°C° 0.4 mm 5 m/s 737 mmHg 77%
    08:00 +3°C° 0.4 mm 6 m/s 737 mmHg 71%
    09:00 +3°C° 0.3 mm 6 m/s 737 mmHg 67%
    10:00 +3°C° 0.3 mm 6 m/s 738 mmHg 64%
    11:00 +3°C° 0.3 mm 6 m/s 738 mmHg 60%
    12:00 +3°C° 0.1 mm 6 m/s 739 mmHg 54%
    13:00 +3°C° 0.1 mm 6 m/s 739 mmHg 48%
    14:00 +3°C° 0.1 mm 6 m/s 739 mmHg 43%
    15:00 +3°C° 0 mm 5 m/s 740 mmHg 44%
    16:00 +2°C° 0 mm 5 m/s 740 mmHg 46%
    17:00 +3°C° 0 mm 4 m/s 741 mmHg 48%
    18:00 +1°C° 0 mm 4 m/s 741 mmHg 54%
    19:00 +1°C° 0 mm 3 m/s 742 mmHg 61%
    20:00 0°C° 0 mm 3 m/s 742 mmHg 68%
    21:00 -1°C° 0 mm 3 m/s 742 mmHg 70%
    22:00 -1°C° 0 mm 3 m/s 743 mmHg 72%
    23:00 -1°C° 0 mm 3 m/s 743 mmHg 74%
    Arată mai mult